Location: Bailleul
(50.3375°N, 2.8513°E)
Time: 21:18:53
(UTC+00:00)

Okean 3 Rocket - Pass Details

Date: 19 April 2021
Orbit: 615 x 645 km, 82.5° (Epoch: 18 May)

Event Time Altitude Azimuth Distance (km) Brightness Sun altitude
Rises 21:12:10 0° 350° (N) 2,969 8.1 -19.5°
Reaches altitude 10° 21:14:26 10° 350° (N) 2,052 7.1 -19.7°
Maximum altitude 21:19:00 87° 82° (E) 649 3.5 -20.2°
Enters shadow 21:20:15 48° 167° (SSE) 839 3.8 -20.3°
